Regional Weather Roundup
Issued by NWS Wakefield, VA

Home | Current Version | Previous Version | Text Only | Print | Product List | Glossary Off
Versions: 1 2 3 4 5 6 7 8 9 10 11 12 13 14 15 16 17 18 19 20 21 22 23 24 25 26 27 28 29 30 31 32 33 34 35 36 37 38 39 40 41 42 43 44 45 46 47 48 49 50

001
ASUS41 KAKQ 250115
RWRAKQ

REGIONAL WEATHER ROUNDUP
NATIONAL WEATHER SERVICE WAKEFIELD VA
900 PM EDT WED MAY 24 2017

Note: "fair" indicates few or no clouds below 12,000 feet with no
significant weather and/or obstructions to visibility. * = Denotes
station may not report precipitation (e.g., rain,snow,etc.),
thunder or fog.

VAZ042-051-052>054-056-250200-
NORTHERN VIRGINIA

CITY           SKY/WX    TMP DP  RH WIND       PRES   REMARKS
WASH NATIONAL  CLOUDY    63  57  81 E9        29.71F
DULLES         CLOUDY    62  55  77 E14G21    29.69F
FORT BELVOIR   CLOUDY    63  56  79 SE10      29.70S
QUANTICO       CLOUDY    63  59  87 SE12      29.71S
FREDERICKSBRG* CLOUDY    63  59  88 E15       29.68S
STAFFORD*      CLOUDY    62  60  94 E13       29.73R
WARRENTON      CLOUDY    62  56  80 E9        29.67F
CULPEPER*      CLOUDY    62  59  90 E7        29.67F
MANASSAS*      CLOUDY    62  57  83 E9        29.68F
LEESBURG*      CLOUDY    63  59  88 SE15G21   29.69F
WINCHESTER     CLOUDY    57  54  88 E5        29.68S
FRONT ROYAL*   CLOUDY    59  57  94 E3        29.66S
LURAY*         LGT RAIN  59  59 100 NE3       29.64S
$$

VAZ048-049-060>072-079>083-250200-
CENTRAL AND SOUTH CENTRAL VIRGINIA

CITY           SKY/WX    TMP DP  RH WIND       PRES   REMARKS
RICHMOND       RAIN      60  59  96 E8        29.68R FOG
CHESTERFIELD*  NOT AVBL
PETERSBURG*    RAIN      60  58  95 E9        29.68S
HANOVER        LGT RAIN  61  57  87 VRB6      29.69R
TAPPAHANNOCK*  CLOUDY    62  60  94 E12G17    29.70R
QUINTON*       CLOUDY    61  61 100 E7        29.68R
CHARLOTTSVILLE RAIN      62  59  90 VRB6      29.65R
GORDONSVILLE*  CLOUDY    60  60 100 E6        29.65S FOG
ORANGE*        HVY RAIN  59  57  94 E10       29.65S
LOUISA*        LGT RAIN  64  63  94 E8        29.64F
BUMPASS*       CLOUDY    60  60 100 E13G21    29.66S
FARMVILLE*     RAIN      64  60  89 E8        29.61F
CREWE*         CLOUDY    62  58  87 E10       29.63F
FORT PICKETT*  CLOUDY    61  58  88 E10       29.64F
CHASE CITY*    CLOUDY    64  63  94 E8        29.58F
CLARKSVILLE*   CLOUDY    66  66 100 E12G20    29.57F
SOUTH HILL*    CLOUDY    64  64 100 E3        29.68S
LAWRENCEVILLE* CLOUDY    62  61  97 CALM      29.64F
EMPORIA*       CLOUDY    61  61 100 NE7       29.66F
$$

VAZ088>098-250200-
SOUTHEAST VIRGINIA

CITY           SKY/WX    TMP DP  RH WIND       PRES   REMARKS
NORFOLK        CLOUDY    59  57  93 E13G20    29.70F
VIRGINIA BEACH LGT RAIN  59  56  89 E13       29.69F
NORFOLK NAVAL  CLOUDY    61  56  83 E15G24    29.70F
WEST POINT*    CLOUDY    60  57  89 E13G21    29.71R
SALUDA*        CLOUDY    60  58  95 E14G20    29.72R
NEWPORT NEWS   LGT RAIN  60  57  89 E16       29.70F
LANGLEY AFB    CLOUDY    60  58  93 E13       29.70S
FORT EUSTIS    DRIZZLE   61  57  88 E12G18    29.68R
WILLIAMSBURG*  CLOUDY    63  59  88 E9        29.70F
HR EXEC AP*    CLOUDY    61  55  82 E12G17    29.67F
FRANKLIN*      RAIN      60  58  92 E8        29.68S
US460-WAKEFLD  RAIN      60  59  96 NE8       29.66F FOG
$$

VAZ020-022-025-037-045-250200-
WEST CENTRAL AND SOUTHWEST VIRGINIA

CITY           SKY/WX    TMP DP  RH WIND       PRES   REMARKS
STAUNTON*      HVY RAIN  57  57  98 CALM      29.65F
WAYNESBORO*    CLOUDY    58  58 100 E7        29.63F
HOT SPRINGS VA RAIN      45  43  93 E7G21     29.64R VSB<1/4
LYNCHBURG      RAIN      63  62  97 E10G20    29.58F FOG
DANVILLE       LGT RAIN  65  65 100 VRB5      29.57R
SOUTH BOSTON*  CLOUDY    66  64  94 SE7       29.57F
MARTINSVILLE   CLOUDY    63  62  97 SE3       29.57F
ROANOKE        LGT RAIN  61  61 100 VRB3      29.58F FOG
BLACKSBURG     DRIZZLE   59  57  94 E5        29.59F
DUBLIN*        RAIN      58  55  91 CALM      29.58F
MARION*        CLOUDY    60  57  90 E10       29.55F
HILLSVILLE*    HVY RAIN  58  53  86 CALM      29.56S
RICHLANDS*     RAIN      59  56  92 CALM      29.51R
WISE*          DRIZZLE   57  57 100 SW7       29.52R
ABINGDON*      CLOUDY    62  61  98 E5        29.50R
$$

MDZ021>025-VAZ099-100-250200-
SOUTHERN MARYLAND AND THE DELMARVA PENINSULA

CITY           SKY/WX    TMP DP  RH WIND       PRES   REMARKS
PATUXENT RIVER CLOUDY    60  58  92 E16       29.71S
BAY BRIDGE APT CLOUDY    61  54  77 E13       29.75S
LEONARDTOWN    CLOUDY    59  54  82 E7        29.73S
DOVER          CLOUDY    59  59  99 E10G21    29.76S
GEORGETOWN     CLOUDY    58  53  84 E13       29.76F
EASTON         CLOUDY    59  54  82 E8        29.79S
CAMBRIDGE      CLOUDY    59  55  88 E9G18     29.75S
SALISBURY      CLOUDY    57  55  93 E10       29.74F
OCEAN CITY     CLOUDY    57  54  89 E15G21    29.77S
WALLOPS ISLAND CLOUDY    57  56  96 E17       29.76R
ACCOMACK*      CLOUDY    58  13  17 E10G17    29.73S
$$

NCZ012>017-030>032-250200-
NORTH CENTRAL AND EASTERN NORTH CAROLINA

CITY           SKY/WX    TMP DP  RH WIND       PRES   REMARKS
ROANOKE RAPIDS NOT AVBL
RALEIGH        CLOUDY    69  68  96 SE8       29.58F
ELIZABETH CITY LGT RAIN  63  62  97 E15       29.68F
AHOSKIE*       NOT AVBL
EDENTON*       LGT RAIN  67  65  92 E12       29.67S
CURRITUCK*     CLOUDY    62  62 100 E8        29.71F
KILL DEVIL HLS CLOUDY    64  64 100 CALM      29.69F
MANTEO         DRIZZLE   64  63  94 E12       29.70F
CAPE HATTERAS  NOT AVBL
TARBORO*       NOT AVBL
GOLDSBORO      MOCLDY    73  69  86 S8        29.58F
WASHINGTON     CLOUDY    73  69  89 S9        29.62F
GREENVILLE     CLOUDY    73  72  94 S8        29.64F
NEW BERN       CLOUDY    71  70  96 S9        29.63F
WILMINGTON     LGT RAIN  71  68  90 S12       29.62F
$$

VAZ048-250200-
ELSEWHERE

CITY           SKY/WX    TMP DP  RH WIND       PRES   REMARKS
HARRISBURG PA  CLOUDY    65  56  72 SE10      29.72R
BALTIMORE      CLOUDY    62  55  77 SE12      29.74S
ANNAPOLIS      LGT RAIN  63  59  87 MISG      29.74S
ANDREWS AFB    CLOUDY    60  55  82 E14G22    29.70F
PHILADELPHIA   CLOUDY    62  49  62 E12       29.78S
HENDERSON NC   LGT RAIN  64  63  96 E3        29.59F
GREENSBORO     LGT RAIN  65  65 100 SE6       29.53F
ROCKY MOUNT    CLOUDY    69  69 100 CALM      29.59F
$$

VAZ100-250200-
MARINE

STATION/POSITION TIME  TEMP    WIND        PRES    WAVE   SWELL
                       AIR SEA DIR/SP/G            HT/PER HT/PER
                 (UTC) (F)     (DEG/KT/KT) (MB)    (FT/S) (FT/S)
CAPE MAY NJ      0048   57 62   70/  9/ 16 1007.8S
LEWES DE         0048          100/ 16/ 19   N/A
15NM E FENWICK I 0050   56 56   50/ 16/ 19 1007.6F   5/ 8   3/ 8
WACHAPREAGUE VA  0048   58 65   60/ 17/ 19 1006.8R
THOMAS POINT MD  0100   60 65  100/ 16/ 17   N/A
GOOSES REEF MD   0100   61 61  100/ 16/ 19 1007.4    2/ 3
COVE POINT MD    0048   60     120/ 15/ 18 1007.1F
SOLOMONS ISLAND  0048           90/ 16/ 19   N/A
BISHOPS HEAD MD  0048   59 65   80/ 15/ 19 1006.7F
PINEY POINT MD   0048          120/ 16/ 17   N/A
POTOMAC MD       0100   61 66  110/ 17/ 19 1005.5    2/ 3
CAMBRIDGE MD     0036   60 68                N/A
LEWISETTA VA     0048   61 66  110/ 18/ 21 1006.1R
RAPPAHANNOCK LGT 0048           90/ 20/ 23 1006.7R
STINGRAY PT      0050   60     130/ 16/ 19 1006.3R
YORK RVR RNG VA  0048   60     100/ 18/ 21 1005.0S
YORKTOWN VA      0048   61 68  100/ 13/ 20 1005.2F
JAMESTOWN VA     0100   61 71  100/ 12/ 16   N/A     0
DOMINION TERM VA 0048   61      30/  3/  8 1005.6F
KIPTOPEKE VA     0048      65  100/ 12/ 19   N/A
CHES BAY BRIDGE  0048   60 66   90/ 20/ 23 1005.7F
CAPE HENRY VA    0048   59      80/ 20/ 22   N/A
WILLOUBY STN VA  0048   60      90/ 20/ 24 1005.2F
S CRANEY ISL VA  0048   60     100/ 12/ 15 1005.4F
CAPE HENRY BUOY  0042      62                N/A     4/ 6
1ST LANDING BUOY 0100   60 63              1005.7    3/ 3
CAPE CHARLES BUO 0051      61                N/A     4/ 7
64NM E OF VA BCH 0050   64 65   70/ 14/ 16 1006.7F   4/ 7   3/ 7
DUCK PIER NC     0048   63 65   90/ 14/ 17 1005.3F
44100 DUCK FRF   0035      63                N/A     4/ 6
44056 DUCK FRF   0030      65                N/A     3/ 5
OREGON INLET NC  0048           80/  8/ 12   N/A
HATTERAS NC      0048   75 74  220/  9/ 14 1005.7R
DIAMOND SHLS NC  0050   78 75  210/ 21/ 27 1005.6R   5/ 8   3/ 8
CAPE LOOKOUT NC  0100   73     190/ 15/ 19 1004.6F
$$




USA.gov is the U.S. government's official web portal to all federal, state and local government web resources and services.